User: anonymous   Login
Location: Unspecified
(0.0000°N, 0.0000°E)
Time: 00:56:10
(UTC+00:00)
Language:

Explorer 20 - Orbit

View from above orbital plane
View from above orbital plane
View from above satellite
View from above satellite

Ground track
Ground track

The orbit data is extracted from the following two-line orbital elements,

1   870U 64051A   19022.41223795  .00000017  00000-0  67599-5 0  9997
2   870  79.8997 337.8628 0097335 181.7322 178.3512 13.91118225758060
Epoch (UTC): 22 January 2019 09:53:37
Eccentricity: 0.0097335
inclination: 79.8997°
perigee height: 853 km
apogee height: 996 km
right ascension of ascending node: 337.8628°
argument of perigee: 181.7322°
revolutions per day: 13.91118225
mean anomaly at epoch: 178.3512°
orbit number at epoch: 75806

The dashed part of the orbit path shows where the satellite is in the earth's shadow,  

DLR